Location: Santa Giusta
(39.8800°N, 8.6069°E)
Time: 17:01:06
(UTC+00:00)

USA 81 - Pass Details

Date: 02 February 2023
Orbit: 785 x 787 km, 85.0° (Epoch: 29 March)

Event Time Altitude Azimuth Distance (km) Brightness Sun altitude
Rises 18:51:55 0° 179° (S) 3,262 7.3 -24.4°
Reaches altitude 10° 18:54:15 10° 178° (S) 2,338 6.5 -24.9°
Maximum altitude 18:59:30 80° 93° (E) 804 3.9 -25.9°
Enters shadow 18:59:36 79° 74° (ENE) 806 3.9 -25.9°
Exits shadow 19:06:17 - 6° (N) 2,944 7.0 -27.2°
Sets 19:07:09 0° 6° (N) 3,290 7.2 -27.3°
